QPF
0.00 0.00 0.00 0.00 0.00 0.00 0.00 0.00 0.00 0.00 0.00 0.00 0.00 0.00 0.00 0.00 0.00 0.00 0.00 0.00 0.00 0.00 0.00 0.00 0.00 0.00 0.00 0.00 0.00 0.00 0.00 0.00 0.00 0.00 0.00 0.00 0.00 0.00 0.00 0.00 0.00 0.00 0.00
0.00 0.00 0.00 0.00 0.00 0.00 0.00 0.00 0.00 0.00 0.00 0.00 0.00 0.00 0.00 0.00 0.00 0.00 0.00 0.00 0.00 0.00 0.00 0.00 0.00 0.00 0.00 0.00 0.00 0.00 0.00 0.00 0.00 0.00 0.00 0.00 0.00 0.00 0.00 0.00 0.00 0.00 0.00
0.00 0.00 0.00 0.00 0.00 0.00 0.00 0.00 0.00 0.00 0.00 0.00 0.00 0.00 0.00 0.00 0.00 0.00 0.00 0.00 0.00 0.00 0.00 0.00 0.00 0.00 0.00 0.00 0.00 0.00 0.00 0.00 0.00 0.00 0.00 0.00 0.00 0.00 0.00 0.00 0.00 0.00 0.00
0.00 0.00 0.00 0.00 0.00 0.00 0.00 0.00 0.00 0.00 0.00 0.00 0.00 0.00 0.00 0.00 0.00 0.00 0.00 0.00 0.00 0.00 0.00 0.00 0.00 0.00 0.00 0.00 0.00 0.00 0.00 0.00 0.00 0.00 0.00 0.00 0.00 0.00 0.00 0.00 0.00 0.00 0.00
0.00 0.00 0.00 0.00 0.00 0.00 0.00 0.00 0.00 0.00 0.00 0.00 0.00 0.00 0.00 0.00 0.00 0.00 0.00 0.00 0.00 0.00 0.00 0.00 0.00 0.00 0.00 0.00 0.00 0.00 0.00 0.00 0.00 0.00 0.00 0.00 0.00 0.00 0.00 0.00 0.00 0.00 0.00
0.00 0.00 0.00 0.00 0.00 0.00 0.00 0.00 0.00 0.00 0.00 0.00 0.00 0.00 0.00 0.00 0.00 0.00 0.00 0.00 0.00 0.00 0.00 0.00 0.00 0.00 0.00 0.00 0.00 0.00 0.00 0.00 0.00 0.00 0.00 0.00 0.00 0.00 0.00 0.00 0.00 0.00 0.00
0.00 0.00 0.00 0.00 0.00 0.00 0.00 0.00 0.00 0.00 0.00 0.00 0.00 0.00 0.00 0.00 0.00 0.00 0.00 0.00 0.00 0.00 0.00 0.00 0.00 0.00 0.00 0.00 0.00 0.00 0.00 0.00 0.00 0.00 0.00 0.00 0.00 0.00 0.00 0.00 0.00 0.00 0.00
0.00 0.00 0.00 0.00 0.00 0.00 0.00 0.00 0.00 0.00 0.00 0.00 0.00 0.00 0.00 0.00 0.00 0.00 0.00 0.00 0.00 0.00 0.00 0.00 0.00 0.00 0.00 0.00 0.00 0.00 0.00 0.00 0.00 0.00 0.00 0.00 0.00 0.00 0.00 0.00 0.00 0.00 0.00
0.00 0.00 0.00 0.00 0.00 0.00 0.00 0.00 0.00 0.00 0.00 0.00 0.00 0.00 0.00 0.00 0.00 0.00 0.00 0.00 0.00 0.00 0.00 0.00 0.00 0.00 0.00 0.00 0.00 0.00 0.00 0.00 0.00 0.00 0.00 0.00 0.00 0.00 0.00 0.00 0.00 0.00 0.00
0.00 0.00 0.00 0.00 0.00 0.00 0.00 0.00 0.00 0.00 0.00 0.00 0.00 0.00 0.00 0.00 0.00 0.00 0.00 0.00 0.00 0.00 0.00 0.00 0.00 0.00 0.00 0.00 0.00 0.00 0.00 0.00 0.00 0.00 0.00 0.00 0.00 0.00 0.00 0.00 0.00 0.00 0.00
0.00 0.00 0.00 0.00 0.00 0.00 0.00 0.00 0.00 0.00 0.00 0.00 0.00 0.00 0.00 0.00 0.00 0.00 0.00 0.00 0.00 0.00 0.00 0.00 0.00 0.00 0.00 0.00 0.00 0.00 0.00 0.00 0.00 0.00 0.00 0.00 0.00 0.00 0.00 0.00 0.00 0.00 0.00
0.00 0.00 0.00 0.00 0.00 0.00 0.00 0.00 0.00 0.00 0.00 0.00 0.00 0.00 0.00 0.00 0.00 0.00 0.00 0.00 0.00 0.00 0.00 0.00 0.00 0.00 0.00 0.00 0.00 0.00 0.00 0.00 0.00 0.00 0.00 0.00 0.00 0.00 0.00 0.00 0.00 0.00 0.00
0.00 0.00 0.00 0.00 0.00 0.00 0.00 0.00 0.00 0.00 0.00 0.00 0.00 0.00 0.00 0.00 0.00 0.00 0.00 0.00 0.00 0.00 0.00 0.00 0.00 0.00 0.00 0.00 0.00 0.00 0.00 0.00 0.00 0.00 0.00 0.00 0.00 0.00 0.01 0.01 0.01 0.01 0.01
0.00 0.00 0.00 0.00 0.00 0.00 0.00 0.00 0.00 0.00 0.00 0.00 0.00 0.00 0.00 0.00 0.00 0.00 0.00 0.00 0.00 0.00 0.00 0.00 0.00 0.00 0.00 0.00 0.00 0.00 0.00 0.00 0.00 0.00 0.00 0.00 0.00 0.00 0.01 0.01 0.01 0.01 0.01
0.00 0.00 0.00 0.00 0.00 0.00 0.00 0.00 0.00 0.00 0.00 0.00 0.00 0.00 0.00 0.00 0.00 0.00 0.00 0.00 0.00 0.00 0.00 0.00 0.00 0.00 0.00 0.00 0.00 0.00 0.00 0.00 0.00 0.00 0.00 0.00 0.00 0.00 0.01 0.01 0.01 0.01 0.02
0.00 0.00 0.00 0.00 0.00 0.00 0.00 0.00 0.00 0.00 0.00 0.00 0.00 0.00 0.00 0.00 0.00 0.00 0.00 0.00 0.00 0.00 0.00 0.00 0.00 0.00 0.00 0.00 0.00 0.00 0.00 0.00 0.00 0.00 0.00 0.00 0.00 0.01 0.01 0.02 0.02 0.03 0.03
0.00 0.00 0.00 0.00 0.00 0.00 0.00 0.00 0.00 0.00 0.00 0.00 0.00 0.00 0.00 0.00 0.00 0.00 0.00 0.00 0.00 0.00 0.00 0.00 0.00 0.00 0.00 0.00 0.00 0.00 0.00 0.00 0.00 0.00 0.00 0.01 0.01 0.01 0.01 0.02 0.04 0.06 0.07
0.00 0.00 0.00 0.00 0.00 0.00 0.00 0.00 0.00 0.00 0.00 0.00 0.00 0.00 0.00 0.00 0.00 0.00 0.00 0.00 0.00 0.00 0.00 0.00 0.00 0.00 0.00 0.00 0.00 0.00 0.01 0.01 0.00 0.00 0.00 0.00 0.00 0.01 0.01 0.02 0.03 0.03 0.04
0.00 0.00 0.00 0.00 0.00 0.00 0.00 0.00 0.00 0.00 0.00 0.00 0.00 0.00 0.00 0.00 0.00 0.00 0.00 0.00 0.00 0.00 0.00 0.00 0.00 0.00 0.00 0.00 0.00 0.01 0.01 0.00 0.00 0.00 0.00 0.00 0.01 0.01 0.02 0.05 0.04 0.02 0.01
0.00 0.00 0.00 0.00 0.00 0.00 0.00 0.00 0.00 0.00 0.00 0.00 0.00 0.00 0.00 0.00 0.00 0.00 0.00 0.00 0.00 0.00 0.00 0.00 0.00 0.00 0.00 0.00 0.00 0.00 0.00 0.00 0.00 0.00 0.00 0.01 0.01 0.01 0.03 0.06 0.06 0.03 0.01
0.00 0.00 0.00 0.00 0.00 0.00 0.00 0.00 0.00 0.00 0.00 0.00 0.00 0.00 0.00 0.00 0.00 0.00 0.00 0.00 0.00 0.00 0.00 0.00 0.00 0.00 0.00 0.00 0.00 0.00 0.00 0.00 0.00 0.00 0.01 0.01 0.01 0.03 0.04 0.05 0.05 0.03 0.01
0.00 0.00 0.00 0.00 0.00 0.00 0.00 0.00 0.00 0.00 0.00 0.00 0.00 0.00 0.00 0.00 0.00 0.00 0.00 0.00 0.00 0.00 0.00 0.00 0.00 0.00 0.00 0.00 0.00 0.00 0.00 0.00 0.01 0.01 0.01 0.01 0.01 0.02 0.05 0.07 0.08 0.07 0.06
0.00 0.00 0.00 0.00 0.00 0.00 0.00 0.00 0.00 0.00 0.00 0.00 0.00 0.00 0.00 0.00 0.00 0.00 0.00 0.00 0.00 0.00 0.00 0.00 0.00 0.00 0.00 0.00 0.00 0.00 0.00 0.00 0.01 0.01 0.01 0.02 0.02 0.03 0.03 0.05 0.07 0.09 0.10
0.00 0.00 0.00 0.00 0.00 0.00 0.00 0.00 0.00 0.00 0.00 0.00 0.00 0.00 0.00 0.00 0.00 0.00 0.00 0.00 0.00 0.00 0.00 0.00 0.00 0.00 0.00 0.00 0.00 0.00 0.00 0.00 0.01 0.02 0.03 0.03 0.04 0.04 0.03 0.03 0.04 0.06 0.07
0.00 0.00 0.00 0.00 0.00 0.00 0.00 0.00 0.00 0.00 0.00 0.00 0.00 0.00 0.00 0.00 0.00 0.00 0.00 0.00 0.00 0.00 0.01 0.01 0.01 0.01 0.01 0.01 0.01 0.02 0.02 0.01 0.01 0.02 0.04 0.04 0.05 0.06 0.06 0.04 0.03 0.02 0.04
0.00 0.00 0.00 0.00 0.00 0.00 0.00 0.00 0.00 0.00 0.00 0.00 0.00 0.00 0.00 0.00 0.00 0.00 0.00 0.00 0.00 0.00 0.01 0.01 0.01 0.01 0.01 0.02 0.02 0.03 0.03 0.03 0.03 0.05 0.06 0.05 0.04 0.05 0.05 0.05 0.03 0.03 0.02
MSLP
1013.87 1013.59 1013.37 1013.23 1013.20 1013.30 1013.54 1013.92 1014.43 1015.02 1015.67 1016.32 1016.94 1017.51 1018.01 1018.44 1018.82 1019.16 1019.48 1019.81 1020.15 1020.52 1020.93 1021.38 1021.85 1022.34 1022.84 1023.32 1023.77 1024.16 1024.46 1024.66 1024.74 1024.70 1024.55 1024.30 1023.98 1023.63 1023.29 1022.98 1022.73 1022.57 1022.49
1014.34 1014.05 1013.78 1013.56 1013.41 1013.37 1013.47 1013.71 1014.10 1014.61 1015.20 1015.83 1016.44 1017.01 1017.50 1017.91 1018.25 1018.53 1018.79 1019.05 1019.34 1019.67 1020.05 1020.49 1020.96 1021.47 1021.97 1022.46 1022.91 1023.29 1023.59 1023.79 1023.87 1023.85 1023.72 1023.50 1023.22 1022.90 1022.58 1022.29 1022.05 1021.89 1021.80
1014.85 1014.58 1014.30 1014.02 1013.78 1013.62 1013.58 1013.69 1013.96 1014.37 1014.89 1015.47 1016.05 1016.59 1017.05 1017.42 1017.70 1017.92 1018.10 1018.29 1018.50 1018.77 1019.10 1019.49 1019.94 1020.41 1020.89 1021.35 1021.77 1022.13 1022.42 1022.63 1022.74 1022.77 1022.70 1022.57 1022.37 1022.13 1021.87 1021.63 1021.42 1021.26 1021.17
1015.33 1015.09 1014.82 1014.52 1014.22 1013.97 1013.83 1013.83 1013.98 1014.29 1014.73 1015.23 1015.75 1016.24 1016.65 1016.96 1017.18 1017.32 1017.42 1017.52 1017.65 1017.83 1018.08 1018.40 1018.78 1019.18 1019.60 1020.00 1020.38 1020.71 1020.99 1021.22 1021.39 1021.49 1021.53 1021.51 1021.44 1021.32 1021.16 1020.99 1020.82 1020.67 1020.56
1015.69 1015.52 1015.28 1014.99 1014.67 1014.38 1014.16 1014.07 1014.13 1014.34 1014.68 1015.10 1015.54 1015.95 1016.29 1016.53 1016.66 1016.72 1016.73 1016.74 1016.77 1016.86 1017.02 1017.25 1017.53 1017.84 1018.17 1018.50 1018.82 1019.12 1019.40 1019.65 1019.88 1020.09 1020.25 1020.37 1020.44 1020.45 1020.40 1020.30 1020.18 1020.05 1019.92
1015.92 1015.82 1015.64 1015.39 1015.09 1014.78 1014.52 1014.36 1014.34 1014.47 1014.71 1015.03 1015.38 1015.71 1015.95 1016.10 1016.15 1016.13 1016.05 1015.97 1015.91 1015.90 1015.97 1016.09 1016.27 1016.48 1016.71 1016.96 1017.21 1017.47 1017.73 1018.02 1018.31 1018.61 1018.90 1019.15 1019.35 1019.49 1019.54 1019.52 1019.45 1019.33 1019.20
1016.04 1016.01 1015.90 1015.70 1015.43 1015.13 1014.86 1014.66 1014.58 1014.62 1014.78 1015.00 1015.26 1015.48 1015.63 1015.70 1015.66 1015.55 1015.40 1015.24 1015.10 1015.01 1014.97 1015.00 1015.07 1015.18 1015.31 1015.47 1015.65 1015.86 1016.11 1016.41 1016.75 1017.12 1017.49 1017.85 1018.17 1018.40 1018.54 1018.60 1018.56 1018.47 1018.35
1016.10 1016.13 1016.08 1015.93 1015.70 1015.42 1015.15 1014.93 1014.80 1014.77 1014.84 1014.98 1015.13 1015.26 1015.32 1015.31 1015.20 1015.03 1014.81 1014.59 1014.39 1014.22 1014.11 1014.04 1014.02 1014.02 1014.06 1014.12 1014.22 1014.38 1014.59 1014.88 1015.23 1015.64 1016.07 1016.49 1016.87 1017.17 1017.38 1017.48 1017.50 1017.45 1017.36
1016.14 1016.21 1016.20 1016.09 1015.89 1015.64 1015.37 1015.13 1014.97 1014.89 1014.88 1014.93 1015.00 1015.04 1015.03 1014.95 1014.78 1014.56 1014.30 1014.04 1013.79 1013.57 1013.39 1013.25 1013.14 1013.05 1012.99 1012.97 1012.98 1013.06 1013.22 1013.47 1013.80 1014.19 1014.62 1015.06 1015.46 1015.80 1016.04 1016.19 1016.26 1016.26 1016.23
1016.21 1016.28 1016.28 1016.20 1016.02 1015.78 1015.51 1015.27 1015.08 1014.95 1014.89 1014.87 1014.86 1014.84 1014.76 1014.62 1014.42 1014.16 1013.88 1013.59 1013.31 1013.05 1012.82 1012.62 1012.44 1012.27 1012.12 1012.00 1011.92 1011.92 1011.99 1012.17 1012.44 1012.78 1013.18 1013.59 1013.98 1014.31 1014.58 1014.76 1014.88 1014.95 1015.01
1016.29 1016.35 1016.35 1016.26 1016.09 1015.85 1015.59 1015.34 1015.13 1014.97 1014.87 1014.80 1014.73 1014.64 1014.51 1014.33 1014.10 1013.82 1013.52 1013.22 1012.92 1012.64 1012.37 1012.11 1011.86 1011.61 1011.38 1011.17 1011.00 1010.90 1010.88 1010.96 1011.14 1011.41 1011.74 1012.09 1012.45 1012.77 1013.04 1013.26 1013.43 1013.59 1013.74
1016.38 1016.42 1016.40 1016.30 1016.12 1015.88 1015.62 1015.37 1015.15 1014.97 1014.83 1014.71 1014.59 1014.46 1014.28 1014.06 1013.80 1013.51 1013.19 1012.88 1012.56 1012.26 1011.95 1011.65 1011.34 1011.02 1010.70 1010.40 1010.14 1009.94 1009.83 1009.82 1009.91 1010.09 1010.34 1010.63 1010.93 1011.23 1011.51 1011.76 1012.00 1012.23 1012.49
1016.46 1016.47 1016.42 1016.30 1016.11 1015.88 1015.63 1015.38 1015.15 1014.96 1014.79 1014.63 1014.46 1014.28 1014.06 1013.80 1013.50 1013.18 1012.85 1012.52 1012.18 1011.85 1011.51 1011.16 1010.79 1010.41 1010.02 1009.64 1009.30 1009.01 1008.81 1008.71 1008.72 1008.82 1008.99 1009.23 1009.50 1009.78 1010.06 1010.34 1010.63 1010.94 1011.27
1016.50 1016.49 1016.42 1016.28 1016.09 1015.86 1015.62 1015.38 1015.15 1014.94 1014.75 1014.55 1014.33 1014.09 1013.82 1013.51 1013.17 1012.82 1012.46 1012.09 1011.73 1011.37 1010.99 1010.60 1010.18 1009.74 1009.29 1008.84 1008.43 1008.08 1007.81 1007.64 1007.58 1007.62 1007.74 1007.93 1008.18 1008.45 1008.74 1009.05 1009.37 1009.73 1010.12
1016.51 1016.48 1016.39 1016.25 1016.06 1015.84 1015.61 1015.37 1015.15 1014.93 1014.70 1014.45 1014.18 1013.88 1013.54 1013.17 1012.78 1012.38 1011.98 1011.58 1011.18 1010.78 1010.37 1009.93 1009.47 1008.98 1008.48 1007.99 1007.53 1007.13 1006.82 1006.61 1006.50 1006.50 1006.60 1006.77 1006.99 1007.26 1007.55 1007.87 1008.22 1008.59 1009.00
1016.49 1016.45 1016.35 1016.20 1016.02 1015.81 1015.59 1015.37 1015.13 1014.89 1014.63 1014.33 1013.99 1013.62 1013.20 1012.77 1012.31 1011.86 1011.41 1010.97 1010.53 1010.09 1009.64 1009.17 1008.67 1008.15 1007.62 1007.09 1006.61 1006.18 1005.85 1005.62 1005.49 1005.48 1005.56 1005.72 1005.93 1006.19 1006.48 1006.79 1007.13 1007.50 1007.89
1016.47 1016.42 1016.31 1016.15 1015.97 1015.78 1015.56 1015.34 1015.09 1014.82 1014.50 1014.14 1013.73 1013.28 1012.79 1012.28 1011.76 1011.25 1010.75 1010.27 1009.80 1009.33 1008.85 1008.35 1007.82 1007.28 1006.73 1006.19 1005.70 1005.27 1004.93 1004.69 1004.57 1004.55 1004.62 1004.76 1004.96 1005.21 1005.48 1005.77 1006.08 1006.41 1006.77
1016.46 1016.38 1016.26 1016.10 1015.92 1015.72 1015.50 1015.26 1014.98 1014.66 1014.29 1013.87 1013.38 1012.85 1012.29 1011.71 1011.14 1010.58 1010.04 1009.52 1009.02 1008.52 1008.02 1007.50 1006.96 1006.40 1005.85 1005.31 1004.82 1004.40 1004.06 1003.83 1003.71 1003.69 1003.75 1003.87 1004.05 1004.26 1004.50 1004.75 1005.01 1005.29 1005.60
1016.47 1016.36 1016.21 1016.03 1015.83 1015.61 1015.37 1015.10 1014.78 1014.41 1013.98 1013.49 1012.94 1012.34 1011.72 1011.08 1010.46 1009.86 1009.29 1008.75 1008.22 1007.71 1007.19 1006.66 1006.11 1005.55 1005.00 1004.48 1004.00 1003.59 1003.26 1003.04 1002.92 1002.88 1002.92 1003.02 1003.16 1003.33 1003.51 1003.70 1003.92 1004.15 1004.41
1016.48 1016.33 1016.14 1015.93 1015.70 1015.44 1015.16 1014.84 1014.48 1014.05 1013.56 1013.01 1012.40 1011.75 1011.08 1010.41 1009.76 1009.14 1008.55 1007.99 1007.45 1006.92 1006.39 1005.85 1005.30 1004.74 1004.20 1003.69 1003.23 1002.83 1002.52 1002.30 1002.17 1002.12 1002.13 1002.18 1002.27 1002.38 1002.51 1002.65 1002.81 1003.00 1003.22
1016.47 1016.27 1016.04 1015.78 1015.49 1015.19 1014.86 1014.49 1014.07 1013.58 1013.04 1012.44 1011.79 1011.11 1010.42 1009.73 1009.06 1008.43 1007.82 1007.25 1006.70 1006.15 1005.61 1005.06 1004.51 1003.96 1003.43 1002.93 1002.49 1002.11 1001.82 1001.60 1001.46 1001.38 1001.36 1001.37 1001.40 1001.45 1001.52 1001.61 1001.73 1001.89 1002.10
1016.41 1016.16 1015.87 1015.55 1015.22 1014.86 1014.48 1014.05 1013.58 1013.05 1012.46 1011.83 1011.16 1010.46 1009.76 1009.07 1008.40 1007.75 1007.14 1006.55 1005.97 1005.41 1004.84 1004.28 1003.72 1003.17 1002.66 1002.18 1001.76 1001.41 1001.13 1000.92 1000.78 1000.68 1000.62 1000.59 1000.57 1000.57 1000.59 1000.64 1000.73 1000.89 1001.11
1016.28 1015.97 1015.63 1015.26 1014.87 1014.46 1014.02 1013.55 1013.03 1012.47 1011.86 1011.21 1010.54 1009.84 1009.15 1008.46 1007.78 1007.13 1006.49 1005.87 1005.26 1004.66 1004.06 1003.48 1002.91 1002.36 1001.86 1001.41 1001.02 1000.70 1000.45 1000.26 1000.12 1000.02 999.94 999.87 999.82 999.78 999.77 999.80 999.89 1000.05 1000.30
1016.06 1015.70 1015.31 1014.90 1014.47 1014.02 1013.54 1013.03 1012.48 1011.90 1011.28 1010.63 1009.96 1009.27 1008.58 1007.90 1007.22 1006.54 1005.88 1005.21 1004.56 1003.90 1003.26 1002.64 1002.05 1001.50 1001.01 1000.59 1000.24 999.97 999.76 999.61 999.49 999.40 999.32 999.24 999.17 999.12 999.10 999.13 999.23 999.41 999.69
1015.76 1015.36 1014.94 1014.50 1014.03 1013.55 1013.04 1012.51 1011.95 1011.36 1010.74 1010.10 1009.44 1008.76 1008.08 1007.39 1006.69 1005.99 1005.28 1004.56 1003.84 1003.12 1002.42 1001.76 1001.14 1000.59 1000.12 999.73 999.43 999.21 999.05 998.95 998.88 998.82 998.76 998.70 998.64 998.60 998.59 998.64 998.76 998.97 999.28
1015.39 1014.97 1014.53 1014.07 1013.59 1013.09 1012.56 1012.02 1011.45 1010.85 1010.24 1009.61 1008.96 1008.29 1007.61 1006.91 1006.19 1005.44 1004.68 1003.89 1003.10 1002.32 1001.56 1000.85 1000.20 999.65 999.19 998.84 998.59 998.42 998.34 998.29 998.28 998.27 998.26 998.24 998.21 998.20 998.22 998.30 998.46 998.70 999.03
Thickness
5703 5707 5708 5707 5702 5696 5690 5685 5679 5672 5664 5656 5650 5645 5643 5639 5635 5632 5627 5622 5616 5610 5604 5600 5594 5588 5584 5581 5576 5571 5566 5562 5555 5549 5550 5554 5555 5556 5555 5551 5548 5546 5541
5694 5696 5697 5696 5693 5689 5685 5681 5676 5670 5663 5658 5652 5645 5640 5635 5631 5625 5621 5617 5611 5606 5600 5595 5590 5584 5579 5574 5570 5563 5557 5554 5545 5539 5534 5537 5547 5552 5552 5549 5545 5540 5533
5682 5684 5685 5686 5683 5680 5678 5676 5671 5666 5660 5654 5645 5637 5630 5626 5621 5617 5615 5612 5608 5603 5598 5593 5587 5581 5575 5571 5565 5558 5551 5546 5540 5534 5527 5521 5536 5538 5543 5541 5538 5532 5526
5673 5673 5674 5675 5674 5672 5670 5667 5663 5658 5652 5645 5638 5631 5627 5624 5623 5619 5614 5609 5603 5599 5594 5589 5583 5578 5572 5568 5562 5555 5548 5540 5536 5527 5525 5523 5520 5516 5525 5529 5525 5521 5517
5664 5663 5663 5663 5662 5661 5659 5656 5653 5648 5643 5637 5632 5626 5623 5622 5617 5611 5606 5602 5597 5594 5590 5584 5579 5574 5569 5564 5558 5551 5544 5538 5533 5526 5519 5513 5508 5503 5497 5511 5513 5505 5505
5654 5653 5653 5652 5650 5648 5647 5645 5642 5638 5633 5628 5622 5617 5614 5611 5606 5602 5598 5595 5592 5588 5584 5579 5574 5570 5565 5560 5553 5546 5540 5535 5529 5523 5515 5507 5503 5502 5492 5493 5501 5495 5494
5644 5643 5642 5640 5638 5637 5635 5633 5630 5627 5623 5618 5613 5609 5606 5602 5599 5596 5592 5588 5585 5582 5578 5572 5569 5564 5560 5555 5548 5541 5536 5529 5524 5518 5513 5506 5503 5494 5487 5484 5488 5483 5482
5635 5634 5633 5630 5628 5628 5626 5623 5620 5617 5614 5609 5605 5602 5598 5594 5592 5589 5586 5582 5580 5577 5573 5567 5563 5559 5554 5548 5541 5535 5530 5524 5518 5513 5506 5501 5497 5488 5480 5474 5466 5465 5467
5629 5627 5625 5622 5620 5618 5616 5613 5610 5608 5605 5601 5598 5594 5590 5586 5584 5582 5578 5575 5573 5569 5565 5560 5555 5551 5546 5540 5534 5529 5525 5518 5513 5507 5500 5494 5490 5481 5474 5466 5457 5448 5452
5621 5620 5616 5613 5611 5609 5606 5603 5601 5598 5596 5593 5589 5586 5582 5578 5575 5572 5568 5565 5563 5559 5555 5551 5546 5542 5537 5532 5526 5523 5518 5511 5507 5500 5493 5488 5482 5474 5466 5458 5450 5442 5438
5612 5609 5606 5604 5601 5599 5596 5594 5591 5589 5586 5583 5580 5576 5573 5569 5565 5561 5558 5555 5552 5548 5544 5540 5536 5532 5527 5522 5517 5514 5509 5503 5500 5492 5486 5481 5473 5466 5458 5450 5443 5436 5428
5604 5600 5597 5594 5591 5588 5586 5583 5581 5578 5575 5573 5569 5565 5561 5557 5553 5550 5547 5543 5540 5536 5532 5528 5524 5520 5517 5512 5507 5504 5499 5494 5490 5484 5477 5473 5464 5458 5450 5443 5437 5430 5423
5596 5591 5586 5583 5580 5578 5576 5573 5570 5567 5565 5561 5557 5553 5549 5545 5541 5538 5535 5531 5527 5523 5519 5515 5511 5508 5504 5500 5497 5493 5490 5485 5481 5475 5469 5464 5455 5450 5443 5436 5430 5423 5416
5585 5581 5576 5573 5570 5568 5565 5562 5559 5556 5553 5548 5543 5539 5535 5532 5528 5524 5521 5517 5512 5508 5505 5501 5498 5494 5491 5487 5484 5480 5477 5474 5471 5466 5460 5455 5448 5443 5435 5428 5422 5414 5406
5576 5572 5567 5563 5559 5556 5553 5550 5546 5543 5539 5534 5529 5525 5521 5517 5513 5509 5505 5501 5497 5493 5489 5486 5483 5480 5476 5473 5469 5466 5464 5461 5458 5454 5449 5445 5439 5434 5426 5419 5411 5403 5396
5566 5562 5558 5554 5550 5545 5541 5537 5532 5528 5523 5518 5513 5510 5506 5501 5496 5492 5489 5484 5481 5477 5473 5470 5467 5465 5463 5462 5461 5458 5454 5450 5445 5442 5438 5433 5428 5425 5421 5416 5409 5398 5387
5554 5550 5546 5542 5537 5532 5527 5521 5517 5512 5506 5501 5497 5492 5488 5484 5480 5476 5472 5468 5464 5461 5457 5454 5452 5450 5448 5448 5448 5448 5446 5442 5437 5432 5427 5423 5419 5414 5409 5404 5401 5396 5389
5543 5538 5533 5529 5524 5518 5512 5506 5501 5495 5489 5484 5480 5475 5470 5466 5463 5459 5455 5451 5449 5445 5443 5440 5438 5436 5436 5435 5436 5436 5434 5431 5428 5423 5418 5413 5409 5404 5397 5392 5387 5382 5377
5530 5525 5519 5514 5508 5501 5495 5489 5484 5478 5472 5468 5463 5458 5452 5449 5445 5442 5439 5436 5433 5431 5429 5427 5424 5423 5423 5423 5423 5423 5421 5418 5416 5412 5408 5403 5400 5395 5390 5384 5378 5371 5366
5518 5512 5505 5497 5491 5485 5478 5471 5466 5460 5455 5452 5447 5442 5436 5431 5428 5426 5423 5421 5418 5417 5416 5415 5412 5411 5410 5410 5411 5411 5408 5406 5404 5400 5396 5394 5390 5386 5381 5375 5369 5363 5356
5502 5496 5489 5480 5474 5468 5461 5454 5449 5444 5440 5436 5431 5426 5420 5415 5412 5410 5408 5405 5404 5404 5403 5402 5402 5399 5399 5399 5399 5399 5396 5394 5392 5390 5386 5382 5380 5379 5375 5369 5362 5356 5347
5486 5480 5472 5465 5458 5450 5442 5438 5434 5430 5426 5421 5416 5411 5406 5401 5398 5395 5394 5392 5391 5391 5392 5392 5392 5390 5388 5388 5388 5389 5388 5387 5383 5381 5377 5373 5372 5369 5366 5360 5355 5348 5340
5469 5463 5456 5450 5443 5434 5426 5420 5419 5415 5411 5407 5402 5397 5393 5389 5385 5382 5381 5381 5380 5379 5381 5381 5382 5383 5381 5379 5380 5380 5379 5377 5374 5371 5370 5367 5364 5360 5356 5351 5346 5339 5331
5452 5446 5440 5434 5430 5423 5413 5405 5403 5400 5396 5392 5389 5385 5381 5379 5376 5372 5370 5369 5370 5370 5372 5372 5374 5375 5374 5372 5370 5368 5366 5366 5363 5360 5359 5358 5355 5349 5344 5339 5333 5327 5320
5437 5430 5423 5418 5415 5409 5403 5395 5389 5385 5382 5380 5377 5374 5370 5368 5368 5366 5363 5363 5363 5362 5364 5366 5366 5367 5369 5368 5367 5365 5363 5358 5354 5351 5347 5343 5339 5336 5332 5327 5321 5315 5309
5421 5415 5409 5404 5400 5395 5391 5385 5379 5373 5370 5369 5367 5364 5361 5360 5358 5358 5361 5361 5359 5361 5361 5361 5361 5362 5362 5363 5363 5362 5360 5358 5354 5349 5343 5337 5332 5327 5323 5318 5312 5305 5299